TimePDT,TemperatureF,Dew PointF,Humidity,Sea Level PressureIn,VisibilityMPH,Wind Direction,Wind SpeedMPH,Gust SpeedMPH,PrecipitationIn,Events,Conditions,WindDirDegrees,DateUTC
12:15 AM,53.6,53.6,100,29.99,7.0,Calm,Calm,-,N/A,,Overcast,0,2013-08-23 07:15:00
12:45 AM,53.6,53.6,100,29.99,10.0,Calm,Calm,-,N/A,,Overcast,0,2013-08-23 07:45:00
12:56 AM,54.9,54.0,97,29.99,10.0,SSE,3.5,-,N/A,,Overcast,150,2013-08-23 07:56:00
1:17 AM,53.6,53.6,100,29.99,10.0,Calm,Calm,-,N/A,,Scattered Clouds,0,2013-08-23 08:17:00
1:56 AM,54.0,52.9,96,29.98,10.0,South,5.8,-,N/A,,Partly Cloudy,170,2013-08-23 08:56:00
2:27 AM,53.6,53.6,100,29.96,10.0,North,3.5,-,N/A,,Mostly Cloudy,350,2013-08-23 09:27:00
2:56 AM,52.9,52.9,100,29.98,9.0,NNW,3.5,-,N/A,,Overcast,330,2013-08-23 09:56:00
3:56 AM,54.0,52.9,96,29.98,10.0,Calm,Calm,-,N/A,,Overcast,0,2013-08-23 10:56:00
4:05 AM,53.6,53.6,100,29.97,10.0,Calm,Calm,-,N/A,,Overcast,0,2013-08-23 11:05:00
4:47 AM,55.4,53.6,94,29.97,10.0,Calm,Calm,-,N/A,,Overcast,0,2013-08-23 11:47:00
4:56 AM,54.9,54.0,97,29.97,10.0,Calm,Calm,-,N/A,,Overcast,0,2013-08-23 11:56:00
5:56 AM,54.9,54.0,97,29.97,10.0,Calm,Calm,-,N/A,,Overcast,0,2013-08-23 12:56:00
6:56 AM,54.9,54.0,97,29.97,10.0,Calm,Calm,-,N/A,,Overcast,0,2013-08-23 13:56:00
7:56 AM,54.9,54.0,97,29.99,9.0,Calm,Calm,-,N/A,,Overcast,0,2013-08-23 14:56:00
8:56 AM,54.9,52.9,93,29.99,7.0,Calm,Calm,-,N/A,,Overcast,0,2013-08-23 15:56:00
9:56 AM,54.9,54.0,97,29.99,4.0,WNW,5.8,-,N/A,,Overcast,290,2013-08-23 16:56:00
10:30 AM,55.4,53.6,94,29.99,4.0,SW,3.5,-,N/A,,Overcast,230,2013-08-23 17:30:00
10:56 AM,56.8,54.9,93,30.00,10.0,WNW,3.5,-,N/A,,Overcast,290,2013-08-23 17:56:00
11:56 AM,57.9,54.9,90,30.00,10.0,Variable,3.5,-,N/A,,Overcast,0,2013-08-23 18:56:00
12:09 PM,57.2,55.4,94,29.99,10.0,Variable,4.6,-,N/A,,Overcast,0,2013-08-23 19:09:00
12:56 PM,57.9,54.9,90,30.00,10.0,Variable,4.6,-,N/A,,Overcast,0,2013-08-23 19:56:00
1:56 PM,57.9,54.9,90,30.00,10.0,WSW,5.8,-,N/A,,Overcast,250,2013-08-23 20:56:00
2:56 PM,59.0,54.9,86,29.99,9.0,SSW,5.8,-,N/A,,Overcast,210,2013-08-23 21:56:00
3:56 PM,61.9,55.9,81,29.97,10.0,Variable,5.8,-,N/A,,Mostly Cloudy,0,2013-08-23 22:56:00
4:15 PM,60.8,55.4,82,29.97,10.0,WSW,8.1,-,N/A,,Scattered Clouds,250,2013-08-23 23:15:00
4:56 PM,59.0,55.9,90,29.96,6.0,SW,5.8,-,N/A,,Mostly Cloudy,230,2013-08-23 23:56:00
5:37 PM,59.0,55.4,88,29.96,1.8,Calm,Calm,-,N/A,,Mostly Cloudy,0,2013-08-24 00:37:00
5:47 PM,59.0,55.4,88,29.96,3.0,Variable,4.6,-,N/A,,Overcast,0,2013-08-24 00:47:00
5:56 PM,57.9,55.9,93,29.96,1.5,Variable,3.5,-,N/A,,Overcast,0,2013-08-24 00:56:00
6:01 PM,57.2,55.4,94,29.95,3.0,Variable,3.5,-,N/A,,Overcast,0,2013-08-24 01:01:00
6:28 PM,59.0,55.4,88,29.94,10.0,West,6.9,-,N/A,,Partly Cloudy,280,2013-08-24 01:28:00
6:56 PM,57.9,55.9,93,29.94,4.0,Variable,3.5,-,N/A,,Mostly Cloudy,0,2013-08-24 01:56:00
7:16 PM,57.2,55.4,94,29.94,1.8,Variable,3.5,-,N/A,,Overcast,0,2013-08-24 02:16:00
7:19 PM,57.2,55.4,94,29.94,1.0,Calm,Calm,-,N/A,,Overcast,0,2013-08-24 02:19:00
7:25 PM,55.4,55.4,100,29.94,0.5,South,3.5,-,N/A,Fog,Fog,190,2013-08-24 02:25:00
7:38 PM,55.4,55.4,100,29.94,0.2,South,3.5,-,N/A,Fog,Fog,170,2013-08-24 02:38:00
7:45 PM,55.4,55.4,100,29.94,0.2,Calm,Calm,-,N/A,Fog,Fog,0,2013-08-24 02:45:00
7:56 PM,55.9,54.9,96,29.94,0.2,ESE,3.5,-,N/A,Fog,Fog,120,2013-08-24 02:56:00
8:28 PM,55.4,55.4,100,29.94,0.2,Calm,Calm,-,N/A,Fog,Fog,0,2013-08-24 03:28:00
8:41 PM,55.4,55.4,100,29.94,0.5,SE,3.5,-,N/A,Fog,Fog,140,2013-08-24 03:41:00
8:56 PM,54.9,54.9,100,29.95,0.2,Calm,Calm,-,N/A,Fog,Fog,0,2013-08-24 03:56:00
9:14 PM,55.4,55.4,100,29.95,0.5,Calm,Calm,-,N/A,Fog,Fog,0,2013-08-24 04:14:00
9:38 PM,55.4,55.4,100,29.95,1.0,Calm,Calm,-,N/A,,Overcast,0,2013-08-24 04:38:00
9:48 PM,55.4,55.4,100,29.95,0.5,SE,3.5,-,N/A,Fog,Fog,130,2013-08-24 04:48:00
9:56 PM,54.9,54.9,100,29.96,0.5,SE,3.5,-,N/A,Fog,Fog,140,2013-08-24 04:56:00
10:03 PM,55.4,55.4,100,29.95,1.0,SE,3.5,-,N/A,,Mostly Cloudy,130,2013-08-24 05:03:00
10:06 PM,55.4,55.4,100,29.95,1.5,SE,3.5,-,N/A,,Mostly Cloudy,130,2013-08-24 05:06:00
10:09 PM,55.4,55.4,100,29.95,1.0,SE,3.5,-,N/A,,Mostly Cloudy,140,2013-08-24 05:09:00
10:17 PM,55.4,55.4,100,29.95,0.5,Calm,Calm,-,N/A,Fog,Fog,0,2013-08-24 05:17:00
10:30 PM,53.6,53.6,100,29.95,1.0,Calm,Calm,-,N/A,,Mostly Cloudy,0,2013-08-24 05:30:00
10:33 PM,53.6,53.6,100,29.95,1.5,Calm,Calm,-,N/A,,Mostly Cloudy,0,2013-08-24 05:33:00
10:36 PM,53.6,53.6,100,29.95,3.0,ENE,3.5,-,N/A,,Mostly Cloudy,60,2013-08-24 05:36:00
10:44 PM,53.6,53.6,100,29.95,10.0,Calm,Calm,-,N/A,,Scattered Clouds,0,2013-08-24 05:44:00
10:56 PM,54.9,54.9,100,29.95,10.0,Calm,Calm,-,N/A,,Clear,0,2013-08-24 05:56:00
11:56 PM,54.0,52.9,96,29.94,10.0,ESE,3.5,-,N/A,,Clear,120,2013-08-24 06:56:00